Regional Weather Roundup
Issued by NWS

Home | Current Version | Previous Version | Text Only | Print | Product List | Glossary Off
Versions: 1 2 3 4 5 6 7 8 9 10 11 12 13 14 15 16 17 18 19 20 21 22 23 24 25 26 27 28 29 30 31 32 33 34 35 36 37 38 39 40 41 42 43 44 45 46 47 48 49 50

000
ASUS43 KMPX 231001
RWRMN
WEATHER ROUNDUP FOR MINNESOTA
NATIONAL WEATHER SERVICE TWIN CITIES/CHANHASSEN MN
400 AM CST THU FEB 23 2017


NOTE: "FAIR" INDICATES FEW OR NO CLOUDS BELOW 12,000 FEET WITH NO
SIGNIFICANT WEATHER AND/OR OBSTRUCTIONS TO VISIBILITY. N/A MEANS
CURRENT SKY AND/OR WEATHER CONDITIONS ARE NOT AVAILABLE.

MNZ060>063-068>070-231100-
   Twin Cities Metro

CITY           SKY/WX    TMP DP  RH WIND       PRES   REMARKS
TWIN CITIES    CLOUDY    35  28  75 N16       29.85S WCI  25
ST PAUL        CLOUDY    35  30  82 N13       29.86S WCI  26
CRYSTAL        CLOUDY    34  25  69 N13       29.84F WCI  25
BLAINE         CLOUDY    36  30  80 N13       29.85S
LAKEVILLE      CLOUDY    34  30  86 N10G17    29.82F WCI  26
EDEN PRAIRIE   CLOUDY    35  28  75 N14       29.82F WCI  26
SOUTH ST PAUL  CLOUDY    36  31  82 N9        29.84F
LAKE ELMO      CLOUDY    34  32  93 N10G16    29.84F WCI  26
$$
MNZ001>005-007-008-013>017-022>024-027-028-231100-
   Northwest Minnesota

CITY           SKY/WX    TMP DP  RH WIND       PRES   REMARKS
BEMIDJI        CLEAR     23  18  81 N10       29.92R WCI  12
HALLOCK        CLOUDY    27  23  86 N6        29.99S WCI  20
ROSEAU         CLOUDY    27  18  69 N13       29.96F WCI  16
WARROAD        CLOUDY    25  16  68 N10G17    29.96F WCI  15
THIEF RVR FALL CLEAR     23  19  85 N8        29.97R WCI  14
CROOKSTON      CLOUDY    27  21  80 NE9       29.99R WCI  17
FOSSTON        CLEAR     23  21  93 N8        29.95R WCI  14
DETROIT LAKES  CLEAR     27  25  93 N5        29.94S WCI  21
MOORHEAD       CLEAR     28  25  86 N9        29.99R WCI  20
PARK RAPIDS    CLOUDY    27  20  75 N10       29.90S WCI  17
MAHNOMEN       FAIR      26  22  86 N10       29.94S WCI  16
$$
MNZ006-009>011-018-025>026-231100-
   North Central Minnesota

CITY           SKY/WX    TMP DP  RH WIND       PRES   REMARKS
BAUDETTE       CLOUDY    23  15  71 N13       29.93S WCI  11
FLAG ISLAND    CLOUDY    21  12  68 NW25      29.96S WCI   4
INTL FALLS     CLOUDY    25  16  68 NW9       29.91S WCI  15
WASKISH        CLOUDY    25  19  80 N6        29.92F WCI  18
BIG FORK       CLOUDY    25  18  74 N7        29.89F WCI  17
LONGVILLE      CLOUDY    23  19  86 N7        29.91R WCI  15
GRAND RAPIDS   MOCLDY    21  19  92 NW13      29.90R WCI   9
CRANE LAKE     CLOUDY    27  19  74 NW9G16    29.90R WCI  17
ORR            CLOUDY    25  18  74 NW8       29.85S WCI  16
COOK           CLOUDY    25  21  86 NW6       29.87S WCI  18
WALKER         CLOUDY    25  21  85 N6        29.91R WCI  18
$$
MNZ012-019>021-037-231100-
   Northeast Minnesota

CITY           SKY/WX    TMP DP  RH WIND       PRES   REMARKS
DULUTH         PTCLDY    26  24  92 N8        29.82S WCI  18
ELY            CLOUDY    27  21  80 N3        29.83S
HIBBING        CLEAR     22  21  96 NW13      29.85F WCI  10
EVELETH        PTCLDY    25  22  87 N5        29.86S WCI  19
DULUTH HARBOR  PTCLDY    34  28  80 CALM      29.88R
TWO HARBORS    MOCLDY    32  27  80 N5        29.82S WCI  27
SILVER BAY     PTCLDY    28  25  86 CALM      29.82R
GRAND MARAIS     N/A     30  25  81 CALM      29.84R
G MARAIS ARPRT CLOUDY    25  18  74 NW7       29.78R WCI  17
$$
MNZ029>031-032-039>041-046>048-054>057-064-231100-
   West Central Minnesota

CITY           SKY/WX    TMP DP  RH WIND       PRES   REMARKS
FERGUS FALLS   CLEAR     27  27 100 N6        29.99R WCI  20
WHEATON        CLEAR     28  25  86 NW6       29.99R WCI  22
MORRIS         CLEAR     28  28 100 NW9       29.94R WCI  20
ALEXANDRIA     CLEAR     26  23  88 NW7       29.91F WCI  18
ELBOW LAKE     FAIR      28  27  99 N7        29.95R WCI  20
WADENA         CLEAR     25  23  93 NW5       29.91S WCI  19
GLENWOOD       CLEAR     27  25  93 N6        29.92R WCI  20
APPLETON       CLEAR     30  27  86 N9        29.94R WCI  22
BENSON         CLEAR     28  25  86 N5        29.93F WCI  23
ORTONVILLE     CLEAR     28  25  86 CALM      29.96R
MADISON        CLEAR     32  32 100 N14       29.94R WCI  22
WILLMAR        FAIR      30  27  86 N12       29.91S WCI  21
$$
MNZ033>034-036-042>043-049>051-058-059-231100-
   Central Minnesota

CITY           SKY/WX    TMP DP  RH WIND       PRES   REMARKS
ST CLOUD       CLEAR     29  26  89 N9        29.88F WCI  20
SAUK CENTRE    FAIR      27  23  85 N5        29.90S WCI  22
PAYNESVILLE    CLEAR     29  26  86 N6        29.89F WCI  23
AITKIN         PTCLDY    27  21  80 NW6       29.88R WCI  20
PINE RIVER     CLOUDY    25  21  86 N8        29.93S WCI  16
BRAINERD       CLEAR     25  22  88 N8        29.90R WCI  16
STAPLES        CLOUDY    25  25 100 N6        29.90F WCI  18
LONG PRAIRIE   FAIR      27  23  86 NW6       29.90F WCI  20
LITTLE FALLS   CLEAR     27  23  86 CALM      29.90S
LITCHFIELD     CLEAR     30  27  86 N13       29.86F WCI  20
BUFFALO        CLEAR     31  26  83 N12       29.88S WCI  22
MAPLE LAKE     CLEAR     31  28  90 N10       29.88F WCI  22
HUTCHINSON     CLEAR     32  28  86 N8G22     29.86F WCI  25
$$
MNZ037-044-045-052-053-231100-
   East Central Minnesota

CITY           SKY/WX    TMP DP  RH WIND       PRES   REMARKS
PRINCETON      CLEAR     30  27  86 NW8       29.87F WCI  23
MORA           CLEAR     28  25  86 NW6       29.90S WCI  22
CAMBRIDGE      CLEAR     32  25  74 N6        29.84F WCI  26
RUSH CITY      CLEAR     30  27  86 N5        29.87F WCI  25
MOOSE LAKE     CLEAR     28  25  86 N5        29.85S WCI  23
HINCKLEY       FAIR      30  28  93 NW6       29.87F WCI  24
CLOQUET        CLEAR     27  23  86 NW7       29.85R WCI  19
MCGREGOR       PTCLDY    27  23  86 NW7       29.89R WCI  19
$$
MNZ071>073-080-081-089-090-097-098-231100-
   Southwest Minnesota

CITY           SKY/WX    TMP DP  RH WIND       PRES   REMARKS
MONTEVIDEO     CLEAR     30  28  93 N14       29.93S WCI  20
GRANITE FALLS  PTCLDY    32  29  89 NW12      29.91S WCI  23
CANBY          PTCLDY    31  29  92 NW10G17   29.94R WCI  23
MARSHALL       PTCLDY    31  29  92 N12       29.90R WCI  22
REDWOOD FALLS  PTCLDY    32  25  75 N9        29.86S WCI  24
OLIVIA         PTCLDY    32  28  86 N13       29.87F WCI  22
PIPESTONE      CLOUDY    30  27  86 NE12G22   29.87R WCI  21
WINDOM         CLOUDY    32  30  93 N14G20    29.85F WCI  22
WORTHINGTON    CLOUDY    31  30  96 N15G25    29.85F FOG     WCI  20
JACKSON          N/A     32  32 100 VRB10G18  29.84F WCI  24
TRACY          CLOUDY    32  30  94 N14       29.88S WCI  22
SLAYTON        CLOUDY    30  30  99 N16G22    29.87R FOG     WCI  19
$$
MNZ065>067-074>077-082>085-091>093-231100-
   South Central Minnesota

CITY           SKY/WX    TMP DP  RH WIND       PRES   REMARKS
MANKATO          N/A     34  29  82 N8        29.87R WCI  27
NEW ULM        CLOUDY    32  28  86 N8        29.85R WCI  25
ST JAMES       CLOUDY    34  30  86 N15       29.87F WCI  24
FAIRMONT       CLOUDY    35  31  85 N13       29.84S WCI  26
GLENCOE        CLEAR     32  30  92 N10G16    29.84F WCI  24
FARIBAULT      CLOUDY    36  30  80 N14       29.83S
OWATONNA       CLOUDY    36  30  80 N7        29.84R
WASECA         CLOUDY    34  32  93 NW7       29.87R WCI  28
ALBERT LEA     CLOUDY    36  34  93 N13G20    29.82R
$$
MNZ078>079-086>088-094>096-231100-
   Southeast Minnesota

CITY           SKY/WX    TMP DP  RH WIND       PRES   REMARKS
ROCHESTER      CLOUDY    35  33  92 N16       29.79S WCI  25
RED WING       CLOUDY    37  30  75 N7        29.81S
STANTON        CLOUDY    37  32  83 N14G20    29.81S
WINONA         CLOUDY    39  34  81 NW8       29.79S
AUSTIN         CLOUDY    36  32  87 N12       29.80R
PRESTON        CLOUDY    36  33  89 N15G21    29.77S
$$
ABBREVIATIONS USED IN REMARKS
   TC - TEMPERATURES IN CELSIUS
  WCI - WIND CHILL INDEX
   HX - HEAT INDEX
  VSB - VISIBILITY
$$



USA.gov is the U.S. government's official web portal to all federal, state and local government web resources and services.